User: anonymous   Login
Location: Babice
(50.3480°N, 22.9363°E)
Time: 08:22:10
(UTC+00:00)
Language:

Cosmos 1271 Rocket - Orbit

View from above orbital plane
View from above orbital plane
View from above satellite
View from above satellite

Ground track
Ground track

The orbit data is extracted from the following two-line orbital elements,

1 12465U 81046B   20265.91860497 +.00000057 +00000-0 +16969-5 0  9994
2 12465 081.2403 093.3302 0033069 294.1154 065.6616 15.14684620134886
Epoch (UTC): 21 September 2020 22:02:47
Eccentricity: 0.0033069
inclination: 81.2403°
perigee height: 499 km
apogee height: 545 km
right ascension of ascending node: 93.3302°
argument of perigee: 294.1154°
revolutions per day: 15.14684620
mean anomaly at epoch: 65.6616°
orbit number at epoch: 13488

The dashed part of the orbit path shows where the satellite is in the earth's shadow,  

DLR